Location: Newark
(9.4667°S, 159.8167°E)
Time: 11:34:46
(UTC+00:00)

Courier 1B Rocket - Pass Details

Date: 26 November 2019
Orbit: 921 x 1202 km, 28.2° (Epoch: 14 December)

Event Time Altitude Azimuth Distance (km) Brightness Sun altitude
Rises 09:58:19 0° 305° (NW) 4,041 8.5 -34.4°
Reaches altitude 10° 10:01:08 10° 307° (NW) 3,101 7.8 -35.0°
Enters shadow 10:04:58 32° 315° (NW) 1,911 6.5 -35.8°
Maximum altitude 10:08:52 70° 30° (NNE) 1,263 - -36.5°
Drops below altitude 10° 10:16:38 10° 112° (ESE) 3,109 - -38.1°
Sets 10:19:28 0° 114° (ESE) 4,052 - -38.7°
